This is the latest recevied weather packets stored in our database for station/object WA1TYB-13. If no packets are shown the sender has not sent any weather packets the latest 10 day(s).
| Time | Temp. | Humidity | Pressure | Rain* | Wind** | Luminosity | Snow |
|---|---|---|---|---|---|---|---|
| 1778104351 | 19.44° C | 27% | 1013.5 hPa | 0 mm | - | 565 W/m² | - |
| 1778104048 | 20° C | 26% | 1013.5 hPa | 0 mm | - | 576 W/m² | - |
| 1778103744 | 18.89° C | 27% | 1013.5 hPa | 0 mm | - | 574 W/m² | - |
| 1778103443 | 18.89° C | 28% | 1013.6 hPa | 0 mm | - | 530 W/m² | - |
| 1778103140 | 18.89° C | 26% | 1013.5 hPa | 0 mm | - | 597 W/m² | - |
| 1778102837 | 19.44° C | 28% | 1013.6 hPa | 0 mm | - | 598 W/m² | - |
| 1778102532 | 18.33° C | 27% | 1013.6 hPa | 0 mm | - | 624 W/m² | - |
| 1778102228 | 18.33° C | 29% | 1013.8 hPa | 0 mm | - | 631 W/m² | - |
| 1778101925 | 18.33° C | 29% | 1014 hPa | 0 mm | - | 650 W/m² | - |
| 1778101622 | 17.78° C | 30% | 1014 hPa | 0 mm | - | 674 W/m² | - |
| 1778101319 | 17.78° C | 30% | 1014.2 hPa | 0 mm | - | 657 W/m² | - |
| 1778101016 | 17.78° C | 29% | 1013.9 hPa | 0 mm | - | 642 W/m² | - |
| 1778100710 | 17.78° C | 29% | 1014.2 hPa | 0 mm | - | 665 W/m² | - |
| 1778100408 | 17.22° C | 28% | 1014.2 hPa | 0 mm | - | 693 W/m² | - |
| 1778100105 | 17.22° C | 31% | 1014.4 hPa | 0 mm | - | 660 W/m² | - |
| 1778099803 | 16.67° C | 30% | 1014.4 hPa | 0 mm | - | 659 W/m² | - |
| 1778099500 | 17.22° C | 31% | 1014.5 hPa | 0 mm | - | 629 W/m² | - |
| 1778099198 | 16.67° C | 30% | 1014.7 hPa | 0 mm | - | 682 W/m² | - |
| 1778098894 | 16.67° C | 29% | 1014.8 hPa | 0 mm | - | 711 W/m² | - |
| 1778098591 | 16.11° C | 31% | 1014.9 hPa | 0 mm | - | 688 W/m² | - |
| 1778098287 | 16.67° C | 31% | 1015.1 hPa | 0 mm | - | 649 W/m² | - |
| 1778097984 | 16.11° C | 30% | 1015 hPa | 0 mm | - | 649 W/m² | - |
| 1778097681 | 16.67° C | 34% | 1015.1 hPa | 0 mm | - | 639 W/m² | - |
| 1778097377 | 16.11° C | 30% | 1015.3 hPa | 0 mm | - | 568 W/m² | - |
| 1778097074 | 15.56° C | 30% | 1015.6 hPa | 0 mm | - | 615 W/m² | - |
* Rain latest hour (hover to see other rain measurements)
** Current wind speed in m/s (hover to see current wind gust speed)